DateTimeUTC,F1_A11,F1_S11,BsB_S11,BsG_S11,BsR_S11,BbsB_S11,BbsG_S11,BbsR_S11,BaB_A11,BaG_A11,BaR_A11,Tu_S11,T_S11,Uu_S11,U_S11,P_S11,T1_A11
2021-09-07T12:00:00Z,00000200,21000000,,,,,,,0000.52,-000.19,0000.32,18.2,24.9,00.6,00.4,0662.9,31.0
2021-09-07T12:01:00Z,00000200,21000000,,,,,,,-000.74,-000.20,-000.47,18.2,25.0,00.6,00.4,0662.9,31.0
2021-09-07T12:02:00Z,00000200,21000000,,,,,,,0000.22,-000.31,0000.18,18.3,25.0,00.6,00.4,0662.9,31.0
2021-09-07T12:03:00Z,00000200,61000000,,,,,,,0000.31,0000.23,0000.08,18.3,25.0,00.6,00.4,0662.9,31.0
2021-09-07T12:04:00Z,00000200,41000000,0001.50,0001.14,0000.40,0000.10,0000.05,-000.12,0000.33,0000.36,0000.25,18.4,24.8,00.6,00.4,0663.9,31.0
2021-09-07T12:05:00Z,00000200,01000000,0001.11,0000.99,0000.56,-000.28,0000.18,0000.19,0000.31,0000.65,0000.23,18.5,24.8,00.7,00.5,0663.9,31.0
2021-09-07T12:06:00Z,00000200,01000000,0001.09,0000.87,0000.81,0000.31,0000.42,0000.42,0000.23,-000.16,0000.30,18.4,24.8,00.8,00.5,0663.9,31.0
2021-09-07T12:07:00Z,00000200,01000000,0001.38,0000.74,0000.65,0000.72,0000.06,-000.01,0000.19,0000.43,-000.13,18.4,24.7,00.9,00.6,0663.9,30.9
2021-09-07T12:08:00Z,00000200,01000000,0001.00,0000.61,0000.85,0000.27,0000.04,0000.14,0000.18,0000.18,0000.24,18.3,24.7,00.9,00.6,0663.9,31.0
2021-09-07T12:09:00Z,00000200,01000000,0001.78,0000.86,0000.48,0000.09,0000.05,0000.23,-000.12,0000.17,0000.05,18.3,24.7,00.9,00.6,0664.0,31.0
2021-09-07T12:10:00Z,00000200,01000000,0001.11,0000.35,0000.74,-000.46,0000.19,0000.25,0000.36,-000.12,0000.48,18.3,24.6,00.7,00.5,0664.0,31.0
2021-09-07T12:11:00Z,00000200,01000000,0001.34,0000.83,0000.64,0000.30,0000.16,0000.29,0000.48,0000.45,0000.36,18.3,24.6,00.8,00.5,0664.0,31.0
2021-09-07T12:12:00Z,00000200,01000000,0001.27,0000.93,0000.44,-000.22,0000.08,-000.21,0000.51,0000.31,0000.18,18.3,24.6,00.8,00.5,0663.9,31.0
2021-09-07T12:13:00Z,00000200,01000000,0001.28,0000.66,0000.98,-000.28,0000.07,0000.17,0000.28,0000.54,0000.39,18.4,24.7,00.8,00.5,0663.9,31.0
2021-09-07T12:14:00Z,00000200,01000000,0001.43,0001.15,0000.65,0000.58,0000.39,0000.15,0000.42,0000.26,0000.28,18.5,24.8,00.9,00.6,0663.9,31.0
2021-09-07T12:15:00Z,00000200,01000000,0000.62,0000.88,0000.57,0000.15,0000.10,0000.09,0000.13,0000.32,0000.09,18.6,24.8,00.8,00.6,0664.0,31.0
2021-09-07T12:16:00Z,00000200,01000000,0000.99,0000.56,0000.71,-000.29,0000.43,0000.30,0000.65,0000.36,0000.43,18.7,24.9,00.8,00.6,0663.9,31.0
2021-09-07T12:17:00Z,00000200,01000000,0001.06,0000.95,0001.00,-000.33,0000.63,0000.24,0000.01,0000.32,0000.04,18.7,24.9,01.0,00.7,0663.9,31.0
2021-09-07T12:18:00Z,00000200,01000000,0002.16,0000.86,0000.67,-000.48,0000.49,0000.09,0000.36,0000.15,0000.42,18.7,24.9,01.0,00.7,0663.9,31.0
2021-09-07T12:19:00Z,00000200,01000000,0001.02,0000.73,0000.68,0000.13,0000.21,0000.14,0000.28,0000.29,-000.11,18.6,24.8,01.1,00.8,0663.9,31.0
2021-09-07T12:20:00Z,00000200,01000000,0001.63,0001.09,0000.63,0000.49,0000.31,-000.23,0000.14,0000.17,0000.34,18.6,24.8,01.1,00.7,0663.9,31.0
2021-09-07T12:21:00Z,00000200,01000000,0001.71,0000.56,0000.61,-000.11,0000.34,0000.19,0000.41,0000.18,0000.11,18.5,24.8,01.2,00.8,0663.9,31.0
2021-09-07T12:22:00Z,00000200,01000000,0000.84,0000.81,0000.36,-000.55,0000.17,-000.07,0000.52,0000.25,0000.33,18.5,24.8,01.2,00.8,0663.9,31.0
2021-09-07T12:23:00Z,00000200,01000000,0000.63,0001.12,0000.50,0000.51,0000.08,-000.12,0000.51,0000.73,0000.28,18.5,24.7,01.2,00.8,0663.8,31.0
2021-09-07T12:24:00Z,00000200,01000000,0002.06,0000.97,0000.85,0000.42,0000.18,0000.13,0000.04,0000.07,-000.04,18.4,24.7,01.3,00.9,0663.7,31.0
2021-09-07T12:25:00Z,00000200,01000000,0001.16,0001.11,0000.78,0000.25,0000.16,0000.03,0000.24,0000.43,0000.30,18.4,24.7,01.3,00.9,0663.8,31.0
2021-09-07T12:26:00Z,00000200,01000000,0001.27,0000.87,0000.71,0000.12,0000.18,0000.24,0000.63,-000.02,0000.63,18.4,24.7,01.4,00.9,0663.8,31.0
2021-09-07T12:27:00Z,00000200,01000000,0000.98,0000.73,0000.47,0000.17,0000.21,-000.17,0000.27,0000.77,-000.01,18.4,24.7,01.4,01.0,0663.8,31.0
2021-09-07T12:28:00Z,00000200,01000000,0000.75,0000.70,0000.59,0000.46,0000.22,-000.18,0000.35,0000.24,0000.30,18.5,24.8,01.4,01.0,0663.7,31.0
2021-09-07T12:29:00Z,00000200,01000000,0000.67,0000.79,0000.32,0000.23,-000.06,-000.03,0000.38,0000.15,0000.45,18.6,24.8,01.4,01.0,0663.7,31.0
2021-09-07T12:30:00Z,00000200,01000000,0001.74,0001.12,0000.80,0000.19,0000.06,0000.30,0000.15,0000.38,0000.12,18.6,24.8,01.4,00.9,0663.7,31.0
2021-09-07T12:31:00Z,00000200,01000000,0001.10,0001.01,0000.75,-000.08,0000.13,0000.10,0000.36,0000.02,0000.07,18.6,24.8,01.5,01.0,0663.7,31.0
2021-09-07T12:32:00Z,00000200,01000000,0001.42,0000.75,0000.88,0000.07,0000.31,0000.14,0000.27,0000.45,0000.11,18.6,24.8,01.5,01.0,0663.7,31.0
2021-09-07T12:33:00Z,00000200,01000000,0000.99,0001.32,0000.39,-000.28,0000.52,0000.06,0000.17,0000.38,0000.31,18.5,24.8,01.5,01.1,0663.7,31.0
2021-09-07T12:34:00Z,00000200,01000000,0000.59,0000.91,0000.69,0000.01,0000.06,-000.06,0000.67,-000.23,0000.02,18.5,24.7,01.6,01.1,0663.7,31.0
2021-09-07T12:35:00Z,00000200,01000000,0001.53,0000.55,0001.05,0000.14,0000.29,0000.30,-000.35,0000.64,0000.33,18.5,24.7,01.5,01.0,0663.8,31.0
2021-09-07T12:36:00Z,00000200,01000000,0001.64,0001.01,0000.49,-000.20,0000.06,0000.18,0000.48,0000.19,0000.16,18.4,24.7,01.6,01.1,0663.7,31.0
2021-09-07T12:37:00Z,00000200,01000000,0001.78,0001.18,0000.61,-000.34,0000.42,0000.28,0000.03,-000.03,0000.20,18.4,24.7,01.6,01.1,0663.7,31.0
2021-09-07T12:38:00Z,00000200,01000000,0000.57,0001.02,0000.70,0000.14,0000.08,0000.26,0000.30,0000.43,-000.08,18.3,24.7,01.6,01.1,0663.7,31.0
2021-09-07T12:39:00Z,00000200,01000000,0001.79,0001.03,0000.33,0000.36,0000.08,-000.30,0000.75,0000.64,0001.00,18.3,24.6,01.6,01.1,0663.7,31.0
2021-09-07T12:40:00Z,00000200,01000000,0001.96,0000.92,0000.28,-000.05,0000.39,-000.12,0000.54,0000.31,-000.19,18.3,24.6,01.8,01.2,0663.7,31.0
2021-09-07T12:41:00Z,00000200,01000000,0001.71,0000.67,0000.64,0000.21,0000.19,0000.30,0000.34,0000.20,0000.31,18.3,24.6,01.8,01.2,0663.7,30.9
2021-09-07T12:42:00Z,00000200,01000000,0001.15,0000.90,0000.72,0000.54,0000.15,0000.03,0000.44,0000.55,0000.38,18.3,24.6,01.9,01.3,0663.7,31.0
2021-09-07T12:43:00Z,00000200,00000000,0001.50,0000.46,0000.78,-000.10,0000.46,0000.01,0000.46,0000.05,0000.44,18.5,24.7,02.0,01.4,0663.7,31.0
2021-09-07T12:44:00Z,00000200,00000000,0001.05,0000.97,0000.69,-000.24,0000.48,0000.23,-000.24,0000.22,-000.15,18.6,24.7,01.9,01.3,0663.7,31.0
2021-09-07T12:45:00Z,00000200,01000000,0001.42,0000.73,0000.55,0000.29,0000.36,-000.15,0000.37,0000.15,0000.09,18.6,24.8,01.8,01.2,0663.7,31.0
2021-09-07T12:46:00Z,00000200,01000000,0001.01,0000.85,0000.72,0000.77,0000.46,0000.23,-000.11,0000.12,-000.17,18.7,24.8,01.7,01.2,0663.7,31.0
2021-09-07T12:47:00Z,00000200,01000000,0001.51,0000.96,0000.39,0000.15,-000.01,-000.14,0000.35,0000.30,0000.45,18.7,24.8,01.7,01.2,0663.8,31.0
2021-09-07T12:48:00Z,00000200,01000000,0001.18,0001.06,0000.68,0000.29,0000.35,0000.22,0000.30,0000.17,0000.18,18.7,24.8,01.8,01.2,0663.8,31.0
2021-09-07T12:49:00Z,00000200,01000000,0001.82,0000.89,0000.51,-000.07,-000.04,0000.08,-000.09,0000.02,0000.06,18.6,24.8,01.8,01.2,0663.8,31.0
2021-09-07T12:50:00Z,00000200,01000000,0000.74,0001.01,0000.56,-000.44,-000.00,-000.30,0000.34,0000.22,0000.09,18.6,24.8,01.8,01.2,0663.8,31.0
2021-09-07T12:51:00Z,00000200,01000000,0001.85,0000.74,0000.77,-000.13,0000.07,0000.30,0000.11,-000.11,-000.04,18.6,24.8,01.6,01.1,0663.8,31.0
2021-09-07T12:52:00Z,00000200,01000000,0001.81,0000.59,0000.69,0000.36,0000.04,-000.03,0000.07,0000.34,0000.50,18.5,24.7,01.6,01.1,0663.8,31.0
2021-09-07T12:53:00Z,00000200,01000000,0001.93,0000.60,0000.77,0000.02,0000.35,0000.06,0000.02,0000.07,-000.06,18.5,24.7,01.6,01.1,0663.8,31.0
2021-09-07T12:54:00Z,00000200,01000000,0001.04,0000.84,0000.76,0000.82,0000.13,0000.09,0000.23,0000.16,0000.00,18.4,24.7,01.5,01.0,0663.8,31.0
2021-09-07T12:55:00Z,00000200,01000000,0001.68,0000.48,0000.62,0000.35,0000.30,-000.00,0000.65,0000.33,0000.46,18.4,24.7,01.5,01.1,0663.8,31.0
2021-09-07T12:56:00Z,00000200,01000000,0001.33,0001.00,0000.41,0000.32,0000.30,0000.02,0000.06,0000.40,0000.22,18.4,24.7,01.7,01.1,0663.8,31.0
2021-09-07T12:57:00Z,00000200,40000000,,,,,,,-000.03,-000.26,-000.13,18.4,24.7,01.9,01.3,0663.9,31.0
2021-09-07T12:58:00Z,00000200,61000000,,,,,,,0000.14,-000.01,0000.22,18.3,24.9,01.4,00.9,0662.8,31.0
2021-09-07T12:59:00Z,00000200,21000000,,,,,,,-000.01,0000.17,-000.00,18.3,25.0,01.2,00.8,0662.8,31.0
